Tracking 19800 objects as of 23-Jul-2019
HD Live streaming from Space Station
objects crossing your sky now

ASAP-S

Track ASAP-S now!
10-day predictions
ASAP-S is classified as:


NORAD ID: 38013
Int'l Code: 2011-076G
Perigee: 579.5 km
Apogee: 591.0 km
Inclination: 98.0 °
Period: 96.2 minutes
Semi major axis: 6956 km
RCS: 2.764 m2 (large)
Launch date: December 17, 2011
Source: France (FR)
Launch site: FRENCH GUIANA (FRGUI)
aabbcc
Your satellite tracking list
Your tracking list is empty




NASA's NSSDC Master Catalog

Two Line Element Set (TLE):
1 38013U 11076G   19203.92120274 -.00000115 +00000-0 -46283-5 0  9999
2 38013 098.0448 347.1125 0008237 011.1994 348.9408 14.96377139414003
Source of the keplerian elements: AFSPC